Skip Page Navigation
NASA JPL Caltech
NASA Logo - Jet Propulsion Laboratory + View the NASA Portal
+ Center for Near-Earth Object Studies
JPL Home Earth Solar System Stars & Galaxies Technology
JPL Solar System Dynamics
BODIES ORBITS EPHEMERIDES TOOLS PHYSICAL DATA DISCOVERY FAQ SITE MAP
IMPORTANT: The SSD Announcement email list is now available. Major changes are coming in the near future, including possible hostname and/or URL changes. To be notified of such changes, subscribe to this email list.

Please visit this page for more details.


JPL Small-Body Database Browser
Search: [ help ]  
452046 (2014 OY239)
Classification: Main-belt Asteroid          SPK-ID: 2452046
Ephemeris | Orbit Diagram | Orbital Elements | Mission Design | Physical Parameters | Discovery Circumstances ]

[ show orbit diagram ]
Orbital Elements at Epoch 2458600.5 (2019-Apr-27.0) TDB
Reference: JPL 10 (heliocentric ecliptic J2000)
 Element Value Uncertainty (1-sigma)   Units 
e .02801814205356424 9.9175e-08  
a 2.85325252069987 1.1003e-07 au
q 2.773309686260211 3.255e-07 au
i 3.08416101429028 9.7636e-06 deg
node 72.5198295896345 0.00020146 deg
peri 14.45615577131793 0.00028856 deg
M 214.9642797038269 0.00019845 deg
tp 2459309.720395957998
(2021-Apr-05.22039596)
0.00095553 TDB
period 1760.389385618242
4.82
0.00010183
2.788e-07
d
yr
n .2045002105449354 1.183e-08 deg/d
Q 2.933195355139529 1.1312e-07 au
  Orbit Determination Parameters
   # obs. used (total)      52  
   data-arc span      6023 days (16.49 yr)  
   first obs. used      2000-08-27  
   last obs. used      2017-02-22  
   planetary ephem.      DE431  
   SB-pert. ephem.      SB431-N16  
   condition code      0  
   norm. resid. RMS      .623  
   source      ORB  
   producer      Otto Matic  
   solution date      2017-Apr-09 10:53:50  

Additional Information
 Earth MOID = 1.78954 au 
 Jupiter MOID = 2.1161 au 
 T_jup = 3.302 
[ hide covariance matrix ]
Orbital Elements at Epoch 2456941.5 (2014-Oct-11.0) TDB
Reference: JPL 10 (heliocentric ecliptic J2000)
 Element Value Uncertainty (1-sigma)   Units 
e .02683339022472825 9.6101e-08  
q 2.777749969019814 3.123e-07 au
tp 2457523.812220155081
(2016-May-15.31222016)
0.0010708 TDB
node 72.55336821190951 0.00020172 deg
peri 9.428426885906831 0.00030015 deg
i 3.083586770871495 9.7479e-06 deg
  Orbit Determination Parameters
   # obs. used (total)      52  
   data-arc span      6023 days (16.49 yr)  
   first obs. used      2000-08-27  
   last obs. used      2017-02-22  
   planetary ephem.      DE431  
   SB-pert. ephem.      SB431-N16  
   condition code      0  
   norm. resid. RMS      .623  
   source      ORB  
   producer      Otto Matic  
   solution date      2017-Apr-09 10:53:50  

Additional Information
 Jupiter MOID = 2.1161 au 
 T_jup = 3.302 
Orbit Covariance (6×6)
  e q tp node peri i
e 9.235488155635463E-15 -2.830912675408336E-14 2.203296742206273E-11 -1.067975896467324E-13 4.993817715672152E-12 5.453645519921811E-16
q -2.830912675408336E-14 9.752819072471928E-14 -1.125958425605481E-10 3.389598563628907E-13 -2.518853914006334E-11 4.663906305413513E-15
tp 2.203296742206273E-11 -1.125958425605481E-10 1.146525854573427E-6 -6.57422981721579E-10 2.380212232980976E-7 -4.435345401065499E-12
node -1.067975896467324E-13 3.389598563628907E-13 -6.57422981721579E-10 4.068929201155302E-8 -4.076829453421481E-8 3.186180893979871E-10
peri 4.993817715672152E-12 -2.518853914006334E-11 2.380212232980976E-7 -4.076829453421481E-8 9.008921761300849E-8 -3.194408552187255E-10
i 5.453645519921811E-16 4.663906305413513E-15 -4.435345401065499E-12 3.186180893979871E-10 -3.194408552187255E-10 9.502243785527433E-11

Ephemeris | Orbit Diagram | Orbital Elements | Mission Design | Physical Parameters | Discovery Circumstances ]

Physical Parameter Table
Parameter Symbol Value Units Sigma Reference Notes
absolute magnitude H 17.3   n/a MPO477161  

452046 (2014 OY239)          Discovered 2008-Mar-28 by Spacewatch at Kitt Peak
Reference: Last Updated: 2015-11-30

Alternate Designations
 2014 OY239 = 2013 EP135 
Ephemeris | Orbit Diagram | Orbital Elements | Mission Design | Physical Parameters | Discovery Circumstances ]
ABOUT SSD CREDITS/AWARDS PRIVACY/COPYRIGHT GLOSSARY LINKS
FirstGov 2020-Jan-27 09:53 UT
(server date/time)  
NASA Home Page
Site Manager:   Ryan S. Park
Webmaster  Alan B. Chamberlin